Regional Weather Roundup
Issued by NWS Charleston, SC

Current Version | Previous Version | Text Only | Print | Product List | Glossary Off
Versions: 1 2 3 4 5 6 7 8 9 10 11 12 13 14 15 16 17 18 19 20 21 22 23 24 25 26 27 28 29 30 31 32 33 34 35 36 37 38 39 40 41 42 43 44 45 46 47 48 49 50
000 ASUS42 KCHS 222112 RWRCHS REGIONAL WEATHER ROUNDUP NATIONAL WEATHER SERVICE CHARLESTON SC 500 PM EDT FRI MAY 22 2015 NOTE: "FAIR" INDICATES FEW OR NO CLOUDS BELOW 12,000 FEET WITH NO SIGNIFICANT WEATHER AND/OR OBSTRUCTIONS TO VISIBILITY. NOT ALL STATIONS ARE QUALITY CONTROLLED BY THE NATIONAL WEATHER SERVICE. USE DATA WITH CAUTION...ESPECIALLY DEWPOINT OBSERVATIONS. SCZ027-030-031-034>040-042>050-222200- ...SOUTHEAST SOUTH CAROLINA... CITY SKY/WX TMP DP RH WIND PRES REMARKS N CHARLESTON MOSUNNY 75 57 53 E6 30.16F WATERFRONT PAR N/A 75 63 66 E10 30.15R MOUNT PLEASANT FAIR 73 61 64 SE7 30.17S JOHNS ISLAND PTCLDY 73 63 68 E10 30.17S PINOPOLIS N/A 79 54 41 VRB2 30.09F MONCKS CORNER FAIR 79 52 38 NW3 30.17S SUMMERVILLE MOCLDY 75 55 50 CALM 30.18S BEAUFORT MCAS MOSUNNY 79 54 41 CALM 30.16F BEAUFORT ARPT CLOUDY 77 61 57 E6 30.16F HILTON HEAD IS MOSUNNY 73 61 64 NE7 30.18S WALTERBORO PTCLDY 77 52 41 N8 30.18S ALLENDALE MOCLDY 77 54 44 VRB6 30.16S ...SOUTHERN MIDLANDS AND PEE DEE... CITY SKY/WX TMP DP RH WIND PRES REMARKS GEORGETOWN NOT AVBL KINGSTREE NOT AVBL ORANGEBURG SUNNY 78 49 35 CALM 30.17S BARNWELL FAIR 81 52 36 NE5 30.17F AIKEN FAIR 77 43 29 N8 30.21S MANNING FAIR 77 27 15 CALM 30.17R COLUMBIA MOSUNNY 81 48 31 NW7 30.16F SUMTER SUNNY 79 48 34 VRB2 30.15S FLORENCE SUNNY 79 49 34 NE6 30.17S MYRTLE BEACH MOSUNNY 73 57 56 SE12 30.19S N MYRTLE BEACH PTSUNNY 71 57 61 VRB6 30.17S $$ GAZ063-065-086>088-099>101-113>116-118-119-134>141-150-222200- ...SOUTHEAST GEORGIA... CITY SKY/WX TMP DP RH WIND PRES REMARKS SAVANNAH ARPT PTSUNNY 78 58 49 NE7 30.16S HUNTER AAF MOSUNNY 75 61 60 E13 30.14S FORT STEWART SUNNY 79 61 53 E10 30.13S STATESBORO PTSUNNY 78 62 56 NE5 30.15S SYLVANIA PTCLDY 81 58 44 N5 30.17S CLAXTON FAIR 81 63 54 N5 30.14S ...CSRA...CENTRAL AND FAR SOUTHEAST GEORGIA... CITY SKY/WX TMP DP RH WIND PRES REMARKS THOMSON SUNNY 78 56 45 CALM 30.22S AUGUSTA-BUSH MOSUNNY 78 49 35 CALM 30.16F AUGUSTA-DANIEL SUNNY 80 50 34 N9 30.17F SWAINSBORO FAIR 82 55 39 NE3 30.16S VIDALIA MOSUNNY 82 54 36 E8 30.14F EASTMAN FAIR 85 55 36 E6 30.16S HAZLEHURST FAIR 83 54 36 NE6 30.13S ALMA SUNNY 82 51 34 VRB3 30.13S WAYCROSS SUNNY 84 56 37 W3 30.12F JESUP FAIR 82 68 61 E8 30.13R BAXLEY FAIR 84 54 34 CALM 30.13S BRUNSWICK PTSUNNY 77 63 61 E16 30.16S SAINT SIMONS NOT AVBL $$ SCZ027-028-034-036>038-045-046-048>050-GAZ119-141-222200- ...LAKE AND SUPPLEMENTAL COASTAL OBSERVATIONS... STATION/POSITION TIME TEMP WIND PRES WAVE SWELL AIR SEA DIR/SP/G HT/PER HT/PER/DIR (UTC) (F) (DEG/KT/KT) (MB) (FT/S) (FT/S/D) UPR LAKE MARION NOT AVBL WINYAH BAY 1945 69 100/ 8 1021.0 LAKE MURRAY 2000 74 200/ 6/ 9 1021.3F ACE BASIN NERRS 1945 80 350/ 2 1022.0 FORT PULASKI 2000 72 79 60/ 13/ 16 1022.1R SAPELO ISLAND 2000 75 60/ 13 1021.0S $$ ANZ835-935-AMZ111-154-330-350-352-354-370-450-454-472-222200- ...C-MAN AND BUOY OBSERVATIONS... STATION/POSITION TIME TEMP WIND PRES WAVE SWELL AIR SEA DIR/SP/G HT/PER HT/PER/DIR (UTC) (F) (DEG/KT/KT) (MB) (FT/S) (FT/S/D) BUOY 41004 2050 70 76 30/ 16/ 17 1021.2R 5/ 6 2/13 BUOY 41008 2050 71 77 60/ 17/ 19 1021.3R 5/ 7 FOLLY BEACH CMAN 2100 72 80/ 12/ 14 1021.9F CAPERS NEARSHORE 2008 70 80/ 14/ 17 1022.1R FRIPP NEARSHORE 2000 72 80/ 14/ 16 1021.2S STATION/POSITION TIME TEMP WIND PRES WAVE SWELL AIR SEA DIR/SP/G HT/PER HT/PER/DIR (UTC) (F) (DEG/KT/KT) (MB) (FT/S) (FT/S/D) 5E ST. MARYS GA 2021 78 N/A 2/ 4 FRYING PAN BUOY 2050 69 74 50/ 10/ 14 1022.6R 3/ 5 2/ 40/ 5 BUOY 41025 2050 65 77 20/ 8/ 12 1022.1R 3/ 8 3/ 50/ 8 CAPE LOOKOUT NC 2100 67 100/ 9/ 11 1021.7R BUOY 41002 2050 73 75 50/ 16/ 17 1020.1R 5/ 6 2/ 60/ 8 BUOY 41010 2020 81 82 340/ 8/ 8 1018.9F ST AUGUSTINE FL 2100 74 77 20/ 15/ 16 1020.6F $$

USA.gov is the U.S. government's official web portal to all federal, state and local government web resources and services.